EW0352 Weather Reports


time (UTC)temp
C
wind
direction
speed
KPH
gust
KPH
rain 1hr
cm
rain 24hr
cm
rain mn
cm
humidity
%
barometer
mb
20260504081207 12 243 4.8 9.7 0.00 0.00 0.00 48 998.4
20260504080708 12 221 3.2 11.3 0.00 0.00 0.00 48 998.5
20260504080207 12 218 3.2 19.3 0.00 0.00 0.00 48 998.6
20260504070205 12 229 3.2 11.3 0.00 0.00 0.00 49 999.4
20260504050705 10 263 0.0 0.0 0.00 0.00 0.00 61 1001.8
20260504050204 10 263 0.0 0.0 0.00 0.00 0.00 61 1001.8
20260504045705 10 263 0.0 0.0 0.00 0.00 0.00 60 1001.9
20260504045205 10 263 0.0 0.0 0.00 0.00 0.00 60 1002.0
20260504044705 10 263 0.0 1.6 0.00 0.00 0.00 59 1002.1
20260504044205 10 263 0.0 0.0 0.00 0.00 0.00 59 1002.2
20260504043704 10 263 0.0 1.6 0.00 0.00 0.00 58 1002.3
20260504043205 10 263 0.0 0.0 0.00 0.00 0.00 58 1002.3
20260504042705 10 263 0.0 0.0 0.00 0.00 0.00 58 1002.4
20260504042206 11 263 0.0 0.0 0.00 0.00 0.00 57 1002.4
20260504041704 11 263 0.0 0.0 0.00 0.00 0.00 56 1002.6
20260504041205 11 263 0.0 0.0 0.00 0.00 0.00 56 1002.7
20260504040205 11 263 0.0 0.0 0.00 0.00 0.00 54 1002.9
20260504035705 11 263 0.0 0.0 0.00 0.00 0.00 53 1003.1
20260504035205 11 263 0.0 0.0 0.00 0.00 0.00 53 1003.2
20260504034705 11 263 0.0 0.0 0.00 0.00 0.00 52 1003.3
20260504034205 12 263 0.0 0.0 0.00 0.00 0.00 52 1003.3
20260504033705 12 263 0.0 0.0 0.00 0.00 0.00 51 1003.4
20260504033205 12 263 0.0 0.0 0.00 0.00 0.00 51 1003.5
20260504032704 12 263 0.0 0.0 0.00 0.00 0.00 50 1003.6
20260504032205 12 263 0.0 0.0 0.00 0.00 0.00 49 1003.7
20260504031705 12 263 0.0 0.0 0.00 0.00 0.00 48 1003.6
20260504031205 12 263 0.0 0.0 0.00 0.00 0.00 47 1003.7
20260504030705 13 263 0.0 0.0 0.00 0.00 0.00 47 1003.7
20260504030205 13 263 0.0 0.0 0.00 0.00 0.00 46 1003.7
20260504025705 13 263 0.0 0.0 0.00 0.00 0.00 45 1003.8
20260504025205 13 263 0.0 0.0 0.00 0.00 0.00 45 1003.8
20260504024205 14 263 0.0 0.0 0.00 0.00 0.00 42 1003.8
20260504023705 15 263 0.0 0.0 0.00 0.00 0.00 42 1003.8
20260504023206 15 263 0.0 0.0 0.00 0.00 0.00 41 1003.9
20260504022706 15 263 0.0 0.0 0.00 0.00 0.00 40 1003.9
20260504022205 15 263 0.0 0.0 0.00 0.00 0.00 38 1003.9
20260504021706 16 263 0.0 0.0 0.00 0.00 0.00 37 1003.9
20260504021205 16 263 0.0 0.0 0.00 0.00 0.00 36 1004.0
20260504020705 16 263 0.0 0.0 0.00 0.00 0.00 35 1003.9
20260504020205 16 263 0.0 1.6 0.00 0.00 0.00 34 1003.9
20260504015706 16 263 0.0 3.2 0.00 0.00 0.00 34 1003.9
20260504014705 17 263 0.0 0.0 0.00 0.00 0.00 33 1003.9
20260504014205 17 263 0.0 1.6 0.00 0.00 0.00 32 1004.0
20260504013705 17 263 0.0 1.6 0.00 0.00 0.00 32 1004.0
20260504013205 18 263 0.0 4.8 0.00 0.00 0.00 31 1004.0
20260504012705 18 270 3.2 4.8 0.00 0.00 0.00 30 1004.1
20260504012205 18 268 1.6 4.8 0.00 0.00 0.00 30 1004.1
20260504011705 18 257 1.6 8.0 0.00 0.00 0.00 30 1004.1
20260504011205 18 266 1.6 4.8 0.00 0.00 0.00 31 1004.1
20260504010705 18 260 1.6 9.7 0.00 0.00 0.00 30 1004.1
20260504010205 18 267 3.2 4.8 0.00 0.00 0.00 29 1004.2
20260504005705 19 279 1.6 4.8 0.00 0.00 0.00 29 1004.2
20260504005205 19 288 1.6 4.8 0.00 0.00 0.00 28 1004.2
20260504004705 19 280 1.6 4.8 0.00 0.00 0.00 29 1004.2
20260504004205 19 273 1.6 4.8 0.00 0.00 0.00 28 1004.3
20260504003706 19 271 4.8 11.3 0.00 0.00 0.00 28 1004.3
20260504003205 20 296 3.2 11.3 0.00 0.00 0.00 27 1004.3
20260504002705 20 263 3.2 11.3 0.00 0.00 0.00 26 1004.3
20260504001705 20 283 9.7 19.3 0.00 0.00 0.00 27 1004.4
20260504001206 20 284 4.8 16.1 0.00 0.00 0.00 26 1004.5
20260504000706 20 287 4.8 14.5 0.00 0.00 0.00 27 1004.4
20260504000205 20 301 6.4 16.1 0.00 0.00 0.00 27 1004.4
20260503235705 20 277 4.8 14.5 0.00 0.00 0.00 27 1004.5
20260503235205 20 297 9.7 19.3 0.00 0.00 0.00 27 1004.5
20260503234705 21 285 4.8 14.5 0.00 0.00 0.00 27 1004.5
20260503234205 21 288 9.7 19.3 0.00 0.00 0.00 26 1004.5
20260503233706 21 297 8.0 16.1 0.00 0.00 0.00 26 1004.4
20260503233205 21 303 8.0 14.5 0.00 0.00 0.00 27 1004.5
20260503232705 21 234 4.8 11.3 0.00 0.00 0.00 25 1004.5
20260503232206 21 243 4.8 11.3 0.00 0.00 0.00 26 1004.6
20260503231706 21 293 4.8 19.3 0.00 0.00 0.00 25 1004.7
20260503231206 21 284 6.4 22.5 0.00 0.00 0.00 25 1004.8
20260503230705 21 316 4.8 12.9 0.00 0.00 0.00 25 1004.8
20260503225705 21 295 9.7 16.1 0.00 0.00 0.00 25 1004.8
20260503225206 21 264 11.3 20.9 0.00 0.00 0.00 25 1004.9
20260503224705 21 278 4.8 12.9 0.00 0.00 0.00 28 1005.0
20260503224205 21 283 6.4 14.5 0.00 0.00 0.00 27 1005.0
20260503223706 21 256 9.7 19.3 0.00 0.00 0.00 26 1005.0
20260503223206 21 268 8.0 16.1 0.00 0.00 0.00 25 1005.0
20260503222706 21 277 11.3 20.9 0.00 0.00 0.00 27 1005.1
20260503222205 21 254 4.8 14.5 0.00 0.00 0.00 26 1005.0
20260503221706 21 280 6.4 14.5 0.00 0.00 0.00 27 1005.0
20260503220706 21 322 8.0 19.3 0.00 0.00 0.00 25 1005.2
20260503220205 21 258 8.0 19.3 0.00 0.00 0.00 26 1005.1
20260503215705 21 272 6.4 19.3 0.00 0.00 0.00 27 1005.2
20260503215206 21 302 8.0 19.3 0.00 0.00 0.00 26 1005.2
20260503214706 21 291 8.0 20.9 0.00 0.00 0.00 24 1005.2
20260503213705 21 278 14.5 20.9 0.00 0.00 0.00 27 1005.3
20260503213206 21 271 6.4 22.5 0.00 0.00 0.00 29 1005.3
20260503212706 21 273 9.7 16.1 0.00 0.00 0.00 29 1005.3
20260503211705 21 293 9.7 19.3 0.00 0.00 0.00 28 1005.4
20260503211205 21 306 11.3 19.3 0.00 0.00 0.00 29 1005.4
20260503210706 21 267 8.0 16.1 0.00 0.00 0.00 29 1005.4
20260503210205 21 285 8.0 22.5 0.00 0.00 0.00 29 1005.5
20260503205705 21 269 9.7 22.5 0.00 0.00 0.00 29 1005.5
20260503204706 21 321 8.0 19.3 0.00 0.00 0.00 30 1005.5
20260503204206 21 272 9.7 22.5 0.00 0.00 0.00 31 1005.6
20260503203705 21 261 3.2 9.7 0.00 0.00 0.00 34 1005.6
20260503203205 21 270 4.8 16.1 0.00 0.00 0.00 31 1005.7
20260503202706 21 311 9.7 19.3 0.00 0.00 0.00 30 1005.7
20260503202206 21 272 8.0 14.5 0.00 0.00 0.00 31 1005.7
20260503201705 21 289 11.3 19.3 0.00 0.00 0.00 31 1005.8
20260503201206 21 315 8.0 16.1 0.00 0.00 0.00 31 1005.8
20260503195705 20 277 8.0 25.7 0.00 0.00 0.00 30 1006.0
20260503195206 20 314 12.9 25.7 0.00 0.00 0.00 30 1006.0
20260503194706 20 274 14.5 24.1 0.00 0.00 0.00 30 1006.1
20260503194206 20 280 8.0 24.1 0.00 0.00 0.00 31 1006.2
20260503193706 20 292 11.3 19.3 0.00 0.00 0.00 32 1006.3
20260503193206 20 295 19.3 32.2 0.00 0.00 0.00 31 1006.3
20260503192706 20 308 14.5 29.0 0.00 0.00 0.00 30 1006.3
20260503192206 20 263 11.3 22.5 0.00 0.00 0.00 30 1006.2
20260503191206 20 301 9.7 19.3 0.00 0.00 0.00 31 1006.4
20260503190706 20 301 8.0 19.3 0.00 0.00 0.00 31 1006.4
20260503190205 20 302 14.5 32.2 0.00 0.00 0.00 30 1006.4
20260503185705 20 291 8.0 24.1 0.00 0.00 0.00 33 1006.3
20260503185206 20 310 16.1 37.0 0.00 0.00 0.00 33 1006.4
20260503184706 20 310 8.0 19.3 0.00 0.00 0.00 32 1006.4
20260503184207 20 338 16.1 29.0 0.00 0.00 0.00 33 1006.5
20260503183706 20 325 11.3 20.9 0.00 0.00 0.00 34 1006.6
20260503183206 20 274 11.3 27.4 0.00 0.00 0.00 34 1006.6
20260503182706 20 279 9.7 20.9 0.00 0.00 0.00 35 1006.5
20260503182206 20 330 9.7 19.3 0.00 0.00 0.00 39 1006.6
20260503181706 20 308 9.7 25.7 0.00 0.00 0.00 37 1006.6
20260503181205 20 304 8.0 19.3 0.00 0.00 0.00 37 1006.7
20260503180706 20 330 11.3 19.3 0.00 0.00 0.00 35 1006.7
20260503180206 20 305 9.7 22.5 0.00 0.00 0.00 40 1006.7
20260503175706 20 6 11.3 25.7 0.00 0.00 0.00 37 1006.8
20260503175206 20 315 11.3 24.1 0.00 0.00 0.00 38 1006.8
20260503174705 19 318 8.0 24.1 0.00 0.00 0.00 37 1006.9
20260503174206 19 319 9.7 24.1 0.00 0.00 0.00 37 1006.9
20260503173706 20 301 14.5 24.1 0.00 0.00 0.00 37 1006.9
20260503173206 20 340 8.0 22.5 0.00 0.00 0.00 38 1006.9
20260503172706 20 353 6.4 20.9 0.00 0.00 0.00 43 1006.9
20260503172206 19 340 9.7 22.5 0.00 0.00 0.00 43 1006.9
20260503171207 19 358 8.0 19.3 0.00 0.00 0.00 41 1006.9
20260503170706 19 290 12.9 25.7 0.00 0.00 0.00 41 1006.9
20260503170206 19 328 6.4 20.9 0.00 0.00 0.00 43 1006.9
20260503150706 17 334 12.9 27.4 0.00 0.00 0.00 44 1006.7
20260503150206 17 338 9.7 22.5 0.00 0.00 0.00 45 1006.6
20260503140206 14 359 11.3 25.7 0.00 0.00 0.00 52 1006.4
20260503131207 12 297 4.8 9.7 0.00 0.00 0.00 55 1006.0
20260503130707 12 316 9.7 16.1 0.00 0.00 0.00 55 1005.9
20260503120206 10 262 1.6 4.8 0.00 0.00 0.00 58 1005.2
20260503110706 11 233 3.2 8.0 0.00 0.00 0.00 54 1004.6
20260503110206 11 198 0.0 4.8 0.00 0.00 0.00 53 1004.5
20260503100207 12 204 3.2 14.5 0.00 0.00 0.00 50 1005.1